Theta_e
320 320 316 313 312 312 311 311 311 311 312 312 312 313 311 309 308 310 310 316 318 319 320 323 327 329 333 337 342 349 350 356 358 356 353 348 353 350 347 347 347 345 346 346 348
320 320 319 317 313 311 311 311 311 311 312 312 312 314 308 307 311 315 315 316 317 319 321 320 321 321 323 334 346 349 351 356 355 350 350 350 353 354 350 349 349 348 347 348 348
320 320 319 319 318 314 311 311 311 311 312 312 313 313 306 308 320 314 318 315 317 321 321 318 319 320 323 342 347 353 357 355 354 348 347 351 352 351 351 352 348 349 348 347 348
320 319 318 319 319 319 316 311 311 311 311 311 313 311 306 315 314 328 322 320 317 320 319 319 320 322 326 344 351 356 357 356 352 349 351 354 351 353 353 352 346 346 346 346 347
318 318 318 317 318 319 319 316 311 312 312 312 313 308 316 320 313 321 323 320 319 319 317 319 321 322 336 349 353 355 353 349 346 350 350 350 354 353 352 349 346 345 346 346 345
315 315 317 316 316 317 319 319 312 311 313 313 313 308 319 313 317 320 322 318 317 318 318 319 321 322 348 350 353 350 351 351 349 346 350 352 350 349 347 348 347 346 346 344 344
313 314 315 315 315 316 317 319 314 311 316 314 312 316 321 312 325 327 323 319 319 318 317 319 319 321 346 347 347 348 351 351 352 349 351 347 350 351 346 348 349 347 345 345 343
313 313 314 314 315 316 317 319 313 312 315 314 311 321 315 316 321 325 320 317 316 317 318 320 320 324 346 343 344 345 351 358 352 351 351 349 353 345 345 347 350 349 347 346 344
312 314 314 314 315 316 317 318 312 317 315 313 320 323 323 326 328 325 326 318 317 316 318 319 321 338 345 348 347 349 352 356 355 351 351 350 349 346 345 344 347 347 347 347 344
312 314 314 314 315 316 318 316 317 319 320 321 323 323 325 327 325 329 329 321 320 318 319 320 322 335 342 342 347 349 353 353 356 353 352 351 350 345 343 344 344 346 344 346 344
313 314 314 315 314 316 318 318 320 321 324 322 320 322 325 327 327 323 325 321 317 317 318 318 320 322 337 344 343 348 344 351 355 353 353 352 351 347 344 346 346 345 345 344 345
314 315 315 315 315 317 318 310 320 318 316 320 324 323 324 326 325 323 322 322 319 318 317 317 319 320 328 343 344 344 347 350 349 353 353 354 354 352 348 346 344 346 344 343 343
314 315 316 317 317 319 318 318 319 322 314 318 323 326 326 325 326 319 319 318 318 317 317 317 319 323 337 345 344 345 347 347 346 351 348 348 349 351 345 347 345 346 347 342 344
315 315 318 317 318 318 319 320 322 318 319 323 326 326 326 320 323 320 320 319 318 316 315 317 318 325 344 344 342 344 343 346 351 354 356 346 352 344 345 346 346 345 348 342 344
315 316 318 317 317 318 320 320 320 318 327 328 326 327 321 322 320 320 318 318 317 318 317 319 335 343 344 343 340 339 341 343 353 352 348 349 353 346 346 346 347 348 348 345 343
315 318 318 316 317 318 320 321 319 322 326 329 326 325 322 320 321 319 320 318 318 319 318 318 323 340 340 340 340 336 334 330 346 345 352 348 352 348 346 344 343 346 348 346 341
316 318 317 317 317 321 320 315 321 326 325 329 326 322 321 320 322 320 319 318 316 318 318 318 319 329 331 332 335 331 320 325 330 344 347 341 348 345 340 340 342 346 346 346 342
316 319 321 320 320 319 319 317 326 324 327 324 324 323 323 322 322 319 317 317 315 317 315 318 320 318 317 322 318 320 317 321 329 335 336 345 349 343 342 340 340 344 345 345 344
318 322 323 324 323 322 313 318 320 321 323 322 322 326 325 325 326 319 316 316 316 314 317 317 319 319 319 319 319 320 322 320 322 326 339 344 343 342 343 341 338 338 342 343 344
320 321 324 326 324 318 315 317 319 320 320 321 323 324 321 325 323 318 317 317 318 316 315 318 320 321 321 321 320 320 318 321 318 334 342 342 346 347 343 344 342 341 339 342 341
320 321 323 325 319 313 316 316 319 319 319 320 321 320 319 325 326 321 322 320 319 319 316 316 319 321 321 320 319 319 320 317 317 324 338 343 343 339 341 340 342 341 340 339 340
314 326 323 321 316 312 316 317 317 318 319 318 317 317 319 323 325 326 327 328 327 318 318 316 316 318 322 321 320 318 319 318 322 323 329 334 337 332 334 338 341 341 340 338 339
314 316 325 321 318 315 316 322 321 322 322 320 320 323 321 321 323 325 327 328 328 326 321 319 318 321 323 327 330 333 332 324 318 317 330 337 337 333 335 338 338 337 337 340 342
317 325 320 317 314 324 325 325 327 326 327 325 325 322 321 320 321 324 328 330 329 331 338 325 317 321 324 326 329 333 331 330 328 330 327 333 338 335 337 338 341 341 341 341 340
317 324 322 325 323 324 323 324 326 328 326 324 325 328 326 323 325 325 328 328 328 329 326 321 325 325 324 328 332 331 332 333 332 331 334 332 335 332 334 339 340 341 341 340 339
320 321 319 322 320 322 320 325 328 328 327 325 327 328 324 327 327 327 325 326 328 325 325 323 324 325 328 328 332 333 332 332 334 331 327 332 334 327 329 334 335 338 341 341 341
317 317 319 321 322 323 324 327 328 326 327 326 325 325 327 327 325 322 321 321 322 326 326 328 324 323 326 331 329 330 329 331 332 331 326 333 331 329 331 335 334 336 340 341 339
Wind_Speed
21 19 17 14 12 11 10 10 10 10 10 10 10 10 10 10 10 7 6 6 3 8 2 3 3 4 8 4 5 3 2 2 5 6 4 4 3 4 5 13 1 3 5 11 23
21 21 20 18 14 12 11 11 10 9 10 10 9 9 9 9 8 10 12 10 11 6 5 4 1 1 1 3 2 3 2 5 6 5 2 4 2 7 4 6 2 6 14 21 23
21 21 21 20 18 15 12 10 10 10 10 9 7 7 6 7 2 7 2 20 12 8 4 1 2 1 1 1 1 3 2 1 1 5 4 4 2 6 9 5 6 11 15 14 17
21 21 21 21 19 20 16 11 10 9 9 8 6 5 3 2 4 1 4 11 18 11 4 2 2 2 2 2 2 2 3 3 3 3 3 3 2 4 7 4 9 15 17 14 11
20 20 21 21 21 20 21 14 10 9 8 6 4 3 1 1 8 2 3 13 21 12 7 3 2 2 3 3 1 4 2 6 3 4 7 9 7 4 8 8 11 12 13 14 11
21 21 21 22 22 21 22 17 10 8 7 2 1 0 2 2 2 6 4 15 17 16 7 6 5 5 4 3 3 2 7 5 2 2 2 7 4 2 5 11 12 14 14 13 12
22 22 23 23 23 22 22 19 9 7 3 0 2 3 2 9 3 4 7 9 16 14 5 9 5 3 5 3 1 3 4 4 3 4 4 4 3 3 1 11 12 15 14 12 11
22 22 23 24 24 23 21 17 7 4 1 2 4 2 6 2 3 7 9 3 12 12 11 5 6 4 5 3 3 2 3 2 1 6 2 2 5 4 2 9 14 13 11 13 13
24 23 23 23 24 23 21 14 3 1 3 5 3 2 7 5 7 18 14 5 10 11 8 7 1 4 4 4 4 4 2 3 3 6 4 4 4 7 7 6 8 11 15 14 11
26 24 24 25 25 25 21 6 2 4 6 3 0 3 5 3 4 9 17 17 2 3 1 2 4 4 3 3 4 5 2 3 3 6 5 5 9 7 5 7 7 6 14 14 11
28 26 25 26 26 27 17 2 2 1 3 7 6 4 4 5 2 7 10 10 4 5 3 3 0 8 9 6 2 5 3 2 3 3 5 7 7 13 7 6 7 6 10 11 12
28 26 27 27 29 21 1 2 3 2 7 11 9 6 11 2 4 5 9 5 4 4 4 4 7 8 4 6 3 4 5 4 1 3 7 1 12 8 7 5 7 8 8 13 7
29 29 30 26 21 2 5 6 2 12 1 7 6 5 6 10 8 8 12 5 4 5 6 7 10 5 6 5 6 4 6 7 4 7 3 1 6 8 6 6 4 6 5 11 16
30 32 31 27 0 8 7 4 16 4 4 6 3 6 5 6 3 9 11 6 1 9 8 6 6 7 3 5 6 3 16 11 6 3 2 2 5 5 6 6 7 10 8 9 12
36 33 28 19 12 4 2 13 7 3 2 1 3 2 4 8 4 4 6 5 8 7 7 7 2 4 4 8 8 11 14 13 11 4 2 3 2 5 3 6 10 10 12 10 15
38 32 29 6 8 11 9 12 6 5 4 3 6 5 6 2 2 3 4 4 2 5 1 7 3 8 10 3 18 1 5 6 6 3 2 4 6 5 5 7 6 8 10 11 12
39 34 18 8 4 5 14 2 5 3 5 3 4 5 7 6 3 5 7 8 5 3 4 3 5 4 5 5 3 4 7 2 3 1 6 5 4 10 5 6 6 13 12 10 11
42 19 5 10 6 8 2 5 2 3 5 4 2 3 7 5 4 5 6 4 6 2 2 4 7 8 6 11 9 8 9 6 6 4 3 3 5 6 2 3 3 7 9 8 11
36 8 3 2 12 3 5 3 6 5 3 7 6 2 3 2 4 5 6 7 7 10 9 6 6 5 6 4 10 6 5 4 6 3 2 3 6 8 5 6 6 7 6 11 12
19 11 5 2 15 4 5 4 4 4 4 2 2 2 2 4 5 7 8 5 7 13 4 5 2 3 4 5 3 8 7 2 3 3 4 3 5 5 4 3 3 6 6 6 7
6 3 10 9 3 5 3 6 5 6 2 4 1 4 7 4 6 6 6 7 5 5 8 5 5 9 4 4 9 2 1 6 5 4 5 2 6 6 8 6 8 6 7 8 8
7 3 6 2 4 2 2 4 4 5 5 8 5 9 6 3 4 4 7 3 5 7 10 10 5 6 11 4 5 6 6 5 5 4 1 4 6 3 6 8 7 8 8 6 9
2 3 5 2 1 3 6 5 4 3 4 3 4 6 6 7 2 4 2 4 7 1 7 7 3 2 7 7 3 3 4 6 5 4 5 6 5 4 1 5 9 9 8 6 8
2 4 4 4 1 3 5 5 6 7 5 5 4 3 1 4 2 3 2 4 5 3 2 8 5 7 8 8 5 3 4 4 5 4 4 6 4 4 5 6 7 8 9 10 9
3 0 2 3 3 4 2 4 6 8 6 5 2 4 4 4 4 4 2 5 4 9 5 3 4 4 5 7 5 4 4 8 5 5 6 6 10 10 12 12 13 12 11 8 7
2 3 4 2 4 6 5 5 6 6 3 7 6 5 5 4 3 3 2 2 3 7 6 6 2 4 3 4 3 4 5 2 1 3 6 3 7 5 3 4 5 7 8 7 7
6 4 2 3 4 2 2 5 5 7 4 5 6 4 1 5 7 7 5 4 6 2 2 3 3 3 5 2 2 3 6 6 5 5 8 6 11 6 5 9 9 8 8 10 9
Wind_Direction
16 12 3 354 342 335 330 323 322 324 321 321 325 328 326 320 310 286 238 210 179 200 189 122 175 200 203 240 194 114 87 236 208 134 229 157 15 121 124 141 16 233 130 132 148
14 14 11 7 356 343 332 327 327 322 321 323 328 331 329 324 312 253 242 206 206 217 210 172 139 70 273 238 175 120 150 226 169 149 163 113 235 337 107 143 68 85 96 126 142
12 11 12 12 7 359 341 331 326 326 326 328 329 331 330 328 310 248 308 211 201 199 163 102 176 162 281 352 327 156 242 273 74 117 134 136 283 343 131 185 225 157 142 148 151
6 6 7 8 9 9 357 337 326 325 328 327 329 327 325 354 160 245 311 195 189 186 203 148 93 67 324 287 48 347 15 43 86 111 75 356 309 326 236 231 167 162 160 156 171
1 0 2 1 3 2 3 345 327 325 328 332 330 326 50 24 252 250 44 164 176 183 190 165 112 161 19 73 32 22 349 53 14 129 113 306 286 260 248 178 154 155 167 170 179
355 354 354 356 355 355 356 349 330 325 323 329 312 118 85 269 265 240 191 162 186 191 177 175 176 168 81 49 88 237 85 114 127 136 164 201 271 264 57 136 153 174 185 183 187
351 350 349 349 349 349 352 344 331 330 326 197 162 121 101 237 313 202 192 199 196 194 151 201 171 108 147 102 209 40 65 0 176 175 202 226 318 152 148 160 175 186 192 188 198
350 347 346 344 343 342 346 339 320 324 149 159 143 122 244 259 257 193 199 207 206 214 210 223 218 121 122 108 47 97 71 42 160 183 154 123 230 250 192 133 189 195 195 200 197
351 346 343 342 340 336 342 337 318 81 141 139 113 124 271 292 231 229 223 191 184 212 240 283 187 122 95 80 14 12 139 161 294 220 135 138 233 249 193 148 181 192 193 204 199
351 347 342 340 339 333 336 335 118 107 111 117 317 328 267 218 203 190 207 199 154 129 26 139 55 98 58 98 233 229 183 246 246 212 222 155 263 285 256 200 222 210 190 193 189
348 345 341 338 335 328 326 164 25 47 214 198 191 250 278 293 228 203 187 150 153 77 147 347 185 220 200 198 255 144 158 86 240 212 179 219 247 257 243 239 196 187 179 184 195
345 342 339 336 330 323 270 150 175 53 297 231 237 268 267 318 349 275 173 140 125 180 105 12 254 241 172 189 115 141 157 229 282 222 175 192 260 253 233 235 210 204 178 190 162
344 341 337 335 328 113 310 244 326 329 193 293 189 191 226 150 205 239 151 145 150 153 176 175 237 116 165 171 166 170 203 199 191 146 127 39 281 228 230 207 178 237 209 186 179
344 339 337 337 321 323 275 144 328 173 52 276 252 260 156 142 230 195 169 137 181 198 146 222 277 227 155 203 145 230 205 200 129 90 270 142 269 277 196 213 202 191 210 178 182
344 337 334 333 295 258 148 322 341 107 358 162 215 167 155 152 172 234 165 70 184 182 121 235 254 156 180 209 162 234 164 201 174 124 48 208 318 270 114 218 237 206 191 201 184
340 335 327 311 252 261 313 332 120 45 265 312 151 165 121 205 273 86 123 64 148 168 210 243 247 160 212 158 190 24 109 57 59 81 308 205 169 266 188 208 225 215 196 194 187
337 332 300 234 229 181 337 58 51 144 323 323 203 162 173 196 183 158 169 186 182 128 282 309 234 231 162 160 234 96 67 17 9 26 225 4 134 250 248 217 213 192 195 190 193
337 335 292 238 139 265 318 55 164 239 262 319 311 100 182 164 233 206 136 217 226 121 128 178 317 184 188 192 180 181 156 162 201 203 259 346 229 256 268 268 177 154 183 172 191
341 348 314 17 190 151 77 90 210 206 308 334 347 80 355 287 193 156 199 214 208 167 179 157 263 288 197 162 132 183 186 191 114 21 100 237 291 305 334 126 136 140 154 192 197
339 330 328 107 147 105 77 227 245 217 339 329 272 159 329 251 165 169 183 202 213 193 184 207 318 259 346 106 48 149 165 89 12 150 240 268 290 238 277 192 249 152 180 198 206
359 32 356 147 128 50 153 229 257 274 318 338 271 312 225 250 191 189 217 262 220 178 157 147 129 279 44 187 184 85 216 55 122 126 163 180 262 216 210 215 224 243 170 206 215
354 60 99 169 44 16 168 213 286 279 281 240 211 211 229 233 230 224 205 239 283 157 165 206 156 221 230 284 183 150 177 136 127 225 177 160 271 254 212 205 177 244 259 196 207
15 272 16 174 82 332 308 294 249 293 270 238 254 234 219 198 230 210 261 266 311 212 171 178 223 91 345 356 13 176 190 121 112 80 190 146 254 297 358 179 192 201 224 225 192
36 8 332 38 80 83 351 285 323 312 274 326 264 5 28 223 290 240 283 295 345 16 16 114 129 169 191 204 163 174 166 168 126 127 180 221 216 271 270 241 197 178 181 203 203
28 18 167 331 338 344 271 348 339 359 334 324 344 13 242 44 15 8 332 318 328 345 7 89 163 166 244 172 172 176 205 168 170 205 155 226 191 209 208 203 199 190 185 172 183
45 27 353 294 315 341 4 358 354 342 277 332 2 331 50 110 156 275 344 325 281 331 26 343 177 127 245 304 195 163 223 227 247 187 282 172 235 215 146 130 193 208 147 164 178
3 5 89 302 345 16 43 325 354 344 293 46 318 320 332 349 301 257 201 244 242 257 313 9 99 85 229 262 89 6 224 214 211 204 155 159 224 151 187 196 200 189 179 181 193